• In Deutschland
  • Länderverzeichnis
  • Für 7 Tage
  • Wassertemperatur
  • Satellitenkarten
  • Wetterkarte
  • Widgets
  • user-avatar
    Anmelden

    Stündliche Wetter Pfungstadt

    Heute, 18 Dezember, Montag

    Zeit Temperatur Niederschläge Wind Luftdruck Luftfeuchtigkeit
    00:00 0°C° 0 mm 3 m/S 758 mmHg 86%
    01:00 0°C° 0 mm 3 m/S 758 mmHg 84%
    02:00 0°C° 0,3 mm 3 m/S 757 mmHg 84%
    03:00 0°C° 0,3 mm 3 m/S 756 mmHg 85%
    04:00 -1°C° 0,3 mm 4 m/S 756 mmHg 85%
    05:00 -1°C° 1 mm 4 m/S 755 mmHg 87%
    06:00 0°C° 1 mm 3 m/S 755 mmHg 90%
    07:00 0°C° 0 mm 3 m/S 754 mmHg 92%
    08:00 0°C° 0,3 mm 3 m/S 755 mmHg 92%
    09:00 +1°C° 0,3 mm 2 m/S 755 mmHg 92%
    10:00 +1°C° 0,3 mm 2 m/S 755 mmHg 92%
    11:00 +2°C° 0 mm 2 m/S 756 mmHg 91%
    12:00 +3°C° 0 mm 1 m/S 756 mmHg 91%
    13:00 +4°C° 0 mm 1 m/S 757 mmHg 90%
    14:00 +3°C° 0 mm 1 m/S 757 mmHg 91%
    15:00 +2°C° 0 mm 0 m/S 757 mmHg 91%
    16:00 +2°C° 0 mm 0 m/S 758 mmHg 92%
    17:00 +2°C° 0 mm 0 m/S 758 mmHg 92%
    18:00 +1°C° 0 mm 0 m/S 759 mmHg 93%
    19:00 +1°C° 0 mm 0 m/S 760 mmHg 93%
    20:00 +1°C° 0 mm 0 m/S 760 mmHg 93%
    21:00 +1°C° 0 mm 0 m/S 760 mmHg 92%
    22:00 +1°C° 0 mm 0 m/S 761 mmHg 92%
    23:00 +1°C° 0 mm 0 m/S 761 mmHg 92%

    Morgen, 19 Dezember, Dienstag

    Zeit Temperatur Niederschläge Wind Luftdruck Luftfeuchtigkeit
    00:00 +1°C° 0 mm 0 m/S 762 mmHg 92%
    01:00 +1°C° 0 mm 0 m/S 762 mmHg 92%
    02:00 +1°C° 0 mm 0 m/S 762 mmHg 91%
    03:00 +1°C° 0 mm 0 m/S 763 mmHg 91%
    04:00 +1°C° 0 mm 0 m/S 763 mmHg 91%
    05:00 +1°C° 0 mm 0 m/S 763 mmHg 91%
    06:00 +1°C° 0 mm 0 m/S 764 mmHg 91%
    07:00 +1°C° 0 mm 0 m/S 764 mmHg 91%
    08:00 +2°C° 0 mm 0 m/S 764 mmHg 91%
    09:00 +2°C° 0 mm 0 m/S 765 mmHg 90%
    10:00 +2°C° 0 mm 0 m/S 765 mmHg 90%
    11:00 +3°C° 0 mm 1 m/S 765 mmHg 88%
    12:00 +4°C° 0 mm 1 m/S 766 mmHg 87%
    13:00 +4°C° 0 mm 1 m/S 766 mmHg 85%
    14:00 +4°C° 0,1 mm 1 m/S 766 mmHg 87%
    15:00 +4°C° 0,1 mm 1 m/S 766 mmHg 89%
    16:00 +4°C° 0,1 mm 1 m/S 766 mmHg 91%
    17:00 +4°C° 0,3 mm 1 m/S 766 mmHg 92%
    18:00 +3°C° 0,3 mm 1 m/S 766 mmHg 93%
    19:00 +3°C° 0,3 mm 1 m/S 766 mmHg 94%
    20:00 +3°C° 0,4 mm 1 m/S 766 mmHg 94%
    21:00 +3°C° 0,4 mm 2 m/S 766 mmHg 94%
    22:00 +3°C° 0,4 mm 2 m/S 766 mmHg 94%
    23:00 +3°C° 0,6 mm 2 m/S 765 mmHg 94%

    übermorgen, 20 Dezember, Mittwoch

    Zeit Temperatur Niederschläge Wind Luftdruck Luftfeuchtigkeit
    00:00 +3°C° 0,6 mm 2 m/S 765 mmHg 94%
    01:00 +3°C° 0,6 mm 2 m/S 765 mmHg 94%
    02:00 +3°C° 0,8 mm 2 m/S 765 mmHg 94%
    03:00 +3°C° 0,8 mm 2 m/S 764 mmHg 94%
    04:00 +3°C° 0,8 mm 2 m/S 764 mmHg 94%
    05:00 +3°C° 0,8 mm 2 m/S 764 mmHg 94%
    06:00 +3°C° 0,8 mm 2 m/S 764 mmHg 95%
    07:00 +3°C° 0,8 mm 2 m/S 763 mmHg 95%
    08:00 +3°C° 0,8 mm 2 m/S 763 mmHg 95%
    09:00 +3°C° 0,8 mm 2 m/S 764 mmHg 95%
    10:00 +3°C° 0,8 mm 2 m/S 764 mmHg 96%
    11:00 +4°C° 0,6 mm 1 m/S 763 mmHg 96%
    12:00 +5°C° 0,6 mm 1 m/S 763 mmHg 96%
    13:00 +5°C° 0,6 mm 1 m/S 763 mmHg 97%
    14:00 +5°C° 0,4 mm 1 m/S 763 mmHg 97%
    15:00 +5°C° 0,4 mm 1 m/S 763 mmHg 97%
    16:00 +6°C° 0,4 mm 1 m/S 763 mmHg 97%
    17:00 +6°C° 0,2 mm 1 m/S 763 mmHg 97%
    18:00 +6°C° 0,2 mm 1 m/S 763 mmHg 97%
    19:00 +6°C° 0,2 mm 1 m/S 764 mmHg 97%
    20:00 +6°C° 0 mm 1 m/S 764 mmHg 97%
    21:00 +6°C° 0 mm 1 m/S 764 mmHg 97%
    22:00 +6°C° 0 mm 1 m/S 764 mmHg 97%
    23:00 +6°C° 0 mm 1 m/S 764 mmHg 98%

    21 Dezember, Donnerstag

    Zeit Temperatur Niederschläge Wind Luftdruck Luftfeuchtigkeit
    00:00 +6°C° 0 mm 1 m/S 764 mmHg 98%
    01:00 +6°C° 0 mm 1 m/S 764 mmHg 98%
    02:00 +6°C° 0,1 mm 1 m/S 764 mmHg 98%
    03:00 +6°C° 0,1 mm 1 m/S 764 mmHg 98%
    04:00 +6°C° 0,1 mm 1 m/S 764 mmHg 98%
    05:00 +6°C° 0 mm 1 m/S 764 mmHg 98%
    06:00 +7°C° 0 mm 1 m/S 764 mmHg 98%
    07:00 +6°C° 0 mm 2 m/S 764 mmHg 98%
    08:00 +6°C° 0,2 mm 2 m/S 764 mmHg 97%
    09:00 +6°C° 0,2 mm 2 m/S 764 mmHg 97%
    10:00 +6°C° 0,2 mm 2 m/S 764 mmHg 97%
    11:00 +7°C° 0,4 mm 2 m/S 763 mmHg 97%
    12:00 +7°C° 0,4 mm 2 m/S 763 mmHg 96%
    13:00 +7°C° 0,4 mm 3 m/S 763 mmHg 96%
    14:00 +7°C° 0,9 mm 2 m/S 763 mmHg 96%
    15:00 +8°C° 0,9 mm 2 m/S 762 mmHg 96%
    16:00 +8°C° 0,9 mm 2 m/S 762 mmHg 97%
    17:00 +7°C° 1 mm 2 m/S 762 mmHg 97%
    18:00 +7°C° 1 mm 2 m/S 763 mmHg 97%
    19:00 +7°C° 1 mm 2 m/S 763 mmHg 97%
    20:00 +8°C° 0,2 mm 1 m/S 763 mmHg 97%
    21:00 +8°C° 0,2 mm 1 m/S 764 mmHg 97%
    22:00 +8°C° 0,2 mm 1 m/S 764 mmHg 97%
    23:00 +8°C° 0 mm 1 m/S 764 mmHg 97%

    22 Dezember, Freitag

    Zeit Temperatur Niederschläge Wind Luftdruck Luftfeuchtigkeit
    00:00 +7°C° 0 mm 1 m/S 764 mmHg 97%
    01:00 +7°C° 0 mm 1 m/S 764 mmHg 97%
    02:00 +7°C° 0 mm 1 m/S 765 mmHg 97%
    03:00 +7°C° 0 mm 1 m/S 765 mmHg 97%
    04:00 +7°C° 0 mm 1 m/S 765 mmHg 97%
    05:00 +7°C° 0 mm 1 m/S 765 mmHg 96%
    06:00 +7°C° 0 mm 1 m/S 765 mmHg 96%
    07:00 +7°C° 0 mm 1 m/S 765 mmHg 95%
    08:00 +7°C° 0 mm 1 m/S 765 mmHg 95%
    09:00 +7°C° 0 mm 1 m/S 766 mmHg 94%
    10:00 +7°C° 0 mm 1 m/S 766 mmHg 94%
    11:00 +7°C° 0 mm 1 m/S 766 mmHg 90%
    12:00 +7°C° 0 mm 1 m/S 766 mmHg 87%
    13:00 +7°C° 0 mm 2 m/S 766 mmHg 84%
    14:00 +7°C° 0 mm 1 m/S 766 mmHg 85%
    15:00 +7°C° 0 mm 1 m/S 766 mmHg 87%
    16:00 +6°C° 0 mm 1 m/S 766 mmHg 88%
    17:00 +6°C° 0 mm 1 m/S 766 mmHg 88%
    18:00 +6°C° 0 mm 1 m/S 766 mmHg 89%
    19:00 +5°C° 0 mm 1 m/S 766 mmHg 89%
    20:00 +5°C° 0 mm 1 m/S 766 mmHg 90%
    21:00 +4°C° 0 mm 1 m/S 766 mmHg 90%
    22:00 +4°C° 0 mm 1 m/S 766 mmHg 91%
    23:00 +4°C° 0 mm 1 m/S 766 mmHg 92%

    23 Dezember, Samstag

    Zeit Temperatur Niederschläge Wind Luftdruck Luftfeuchtigkeit
    00:00 +4°C° 0 mm 1 m/S 766 mmHg 92%
    01:00 +3°C° 0 mm 2 m/S 765 mmHg 93%
    02:00 +3°C° 0 mm 2 m/S 765 mmHg 93%
    03:00 +3°C° 0 mm 2 m/S 765 mmHg 93%
    04:00 +3°C° 0 mm 2 m/S 765 mmHg 92%
    05:00 +3°C° 0 mm 2 m/S 765 mmHg 92%
    06:00 +3°C° 0 mm 2 m/S 765 mmHg 92%
    07:00 +4°C° 0 mm 1 m/S 765 mmHg 91%
    08:00 +4°C° 0 mm 1 m/S 765 mmHg 90%
    09:00 +3°C° 0 mm 2 m/S 765 mmHg 89%
    10:00 +3°C° 0 mm 2 m/S 765 mmHg 88%
    11:00 +4°C° 0 mm 2 m/S 765 mmHg 87%
    12:00 +4°C° 0 mm 2 m/S 765 mmHg 86%
    13:00 +5°C° 0 mm 2 m/S 765 mmHg 85%
    14:00 +6°C° 0 mm 1 m/S 764 mmHg 86%
    15:00 +6°C° 0 mm 1 m/S 764 mmHg 88%
    16:00 +6°C° 0 mm 1 m/S 764 mmHg 89%
    17:00 +6°C° 0 mm 1 m/S 764 mmHg 90%
    18:00 +6°C° 0 mm 1 m/S 764 mmHg 91%
    19:00 +4°C° 0 mm 2 m/S 764 mmHg 92%
    20:00 +4°C° 0 mm 2 m/S 764 mmHg 93%
    21:00 +5°C° 0 mm 1 m/S 763 mmHg 93%
    22:00 +5°C° 0 mm 1 m/S 763 mmHg 94%
    23:00 +4°C° 0 mm 2 m/S 763 mmHg 94%
    Mehr zeigen